| time (UTC) | temp C | wind direction | speed KPH | gust KPH | rain 1hr cm | rain 24hr cm | rain mn cm | humidity % | barometer mb |
| 20260906103041 | 10 | 40 | 1.6 | 4.8 | 0.00 | 0.00 | 0.00 | 75 | 1017.4 |
| 20260906101509 | 11 | 98 | 4.8 | 6.4 | 0.00 | 0.00 | 0.00 | 72 | 1017.2 |
| 20260906100024 | 12 | 234 | 3.2 | 4.8 | 0.00 | 0.00 | 0.00 | 64 | 1016.8 |
| 20260906094519 | 12 | 107 | 3.2 | 6.4 | 0.00 | 0.00 | 0.00 | 66 | 1016.8 |
| 20260906093035 | 13 | 214 | 0.0 | 3.2 | 0.00 | 0.00 | 0.00 | 63 | 1016.9 |
| 20260906091535 | 12 | 109 | 0.0 | 4.8 | 0.00 | 0.00 | 0.00 | 64 | 1017.3 |
| 20260906090013 | 12 | 271 | 1.6 | 6.4 | 0.00 | 0.00 | 0.00 | 64 | 1017.4 |
| 20260906084517 | 13 | 91 | 1.6 | 6.4 | 0.00 | 0.00 | 0.00 | 63 | 1017.5 |
| 20260906083023 | 13 | 311 | 0.0 | 3.2 | 0.00 | 0.00 | 0.00 | 60 | 1017.7 |
| 20260906081525 | 13 | 287 | 0.0 | 4.8 | 0.00 | 0.00 | 0.00 | 60 | 1017.6 |
| 20260906080031 | 13 | 84 | 3.2 | 6.4 | 0.00 | 0.00 | 0.00 | 64 | 1017.9 |
| 20260906074513 | 13 | 273 | 1.6 | 6.4 | 0.00 | 0.00 | 0.00 | 63 | 1018.1 |
| 20260906073004 | 13 | 122 | 3.2 | 4.8 | 0.00 | 0.00 | 0.00 | 60 | 1018.0 |
| 20260906071505 | 14 | 134 | 3.2 | 6.4 | 0.00 | 0.00 | 0.00 | 58 | 1018.1 |
| 20260906070018 | 15 | 136 | 1.6 | 4.8 | 0.00 | 0.00 | 0.00 | 55 | 1018.0 |
| 20260906064510 | 15 | 136 | 1.6 | 3.2 | 0.00 | 0.00 | 0.00 | 53 | 1018.0 |
| 20260906063019 | 16 | 290 | 1.6 | 9.7 | 0.00 | 0.00 | 0.00 | 51 | 1018.0 |
| 20260906061509 | 16 | 344 | 1.6 | 9.7 | 0.00 | 0.00 | 0.00 | 47 | 1017.9 |
| 20260906060006 | 20 | 270 | 3.2 | 24.1 | 0.00 | 0.00 | 0.00 | 38 | 1017.9 |
| 20260906054509 | 20 | 107 | 22.5 | 38.6 | 0.00 | 0.00 | 0.00 | 37 | 1017.6 |
| 20260906053014 | 20 | 114 | 20.9 | 37.0 | 0.00 | 0.00 | 0.00 | 36 | 1017.6 |
| 20260906051530 | 21 | 94 | 17.7 | 38.6 | 0.00 | 0.00 | 0.00 | 36 | 1017.7 |
| 20260906050004 | 21 | 107 | 19.3 | 33.8 | 0.00 | 0.00 | 0.00 | 35 | 1017.7 |
| 20260906044508 | 21 | 97 | 27.4 | 40.2 | 0.00 | 0.00 | 0.00 | 33 | 1017.7 |
| 20260906043013 | 21 | 107 | 16.1 | 46.7 | 0.00 | 0.00 | 0.00 | 34 | 1017.6 |
| 20260906041519 | 21 | 90 | 25.7 | 41.8 | 0.00 | 0.00 | 0.00 | 33 | 1017.6 |
| 20260906040038 | 21 | 97 | 24.1 | 48.3 | 0.00 | 0.00 | 0.00 | 33 | 1017.3 |
| 20260906034507 | 22 | 99 | 30.6 | 41.8 | 0.00 | 0.00 | 0.00 | 32 | 1017.3 |
| 20260906033011 | 21 | 84 | 27.4 | 45.1 | 0.00 | 0.00 | 0.00 | 33 | 1017.4 |
| 20260906031547 | 22 | 94 | 30.6 | 45.1 | 0.00 | 0.00 | 0.00 | 32 | 1017.1 |
| 20260906030024 | 22 | 90 | 27.4 | 43.5 | 0.00 | 0.00 | 0.00 | 32 | 1016.8 |
| 20260906024550 | 22 | 90 | 27.4 | 41.8 | 0.00 | 0.00 | 0.00 | 31 | 1016.6 |
| 20260906023010 | 22 | 88 | 30.6 | 54.7 | 0.00 | 0.00 | 0.00 | 32 | 1016.6 |
| 20260906021514 | 21 | 102 | 14.5 | 29.0 | 0.00 | 0.00 | 0.00 | 32 | 1016.6 |
| 20260906020017 | 21 | 42 | 9.7 | 24.1 | 0.00 | 0.00 | 0.00 | 33 | 1016.8 |
| 20260906014525 | 21 | 48 | 12.9 | 19.3 | 0.00 | 0.00 | 0.00 | 34 | 1016.8 |
| 20260906013005 | 22 | 319 | 0.0 | 17.7 | 0.00 | 0.00 | 0.00 | 42 | 1017.1 |
| 20260906011513 | 23 | 59 | 3.2 | 20.9 | 0.00 | 0.00 | 0.00 | 32 | 1016.9 |
| 20260906010045 | 23 | 337 | 4.8 | 19.3 | 0.00 | 0.00 | 0.00 | 32 | 1016.9 |
| 20260906004524 | 23 | 105 | 9.7 | 14.5 | 0.00 | 0.00 | 0.00 | 32 | 1016.9 |
| 20260906003030 | 23 | 194 | 4.8 | 11.3 | 0.00 | 0.00 | 0.00 | 39 | 1016.6 |
| 20260906001509 | 25 | 352 | 6.4 | 14.5 | 0.00 | 0.00 | 0.00 | 34 | 1016.8 |
| 20260906000019 | 24 | 350 | 3.2 | 17.7 | 0.00 | 0.00 | 0.00 | 37 | 1017.0 |
| 20260905234521 | 24 | 299 | 3.2 | 8.0 | 0.00 | 0.00 | 0.00 | 39 | 1017.0 |
| 20260905233027 | 23 | 284 | 3.2 | 9.7 | 0.00 | 0.00 | 0.00 | 38 | 1017.1 |
| 20260905231530 | 23 | 340 | 3.2 | 11.3 | 0.00 | 0.00 | 0.00 | 39 | 1017.2 |
| 20260905230028 | 23 | 317 | 3.2 | 12.9 | 0.00 | 0.00 | 0.00 | 42 | 1017.2 |
| 20260905224520 | 23 | 43 | 1.6 | 9.7 | 0.00 | 0.00 | 0.00 | 42 | 1017.4 |
| 20260905223002 | 23 | 293 | 3.2 | 11.3 | 0.00 | 0.00 | 0.00 | 42 | 1017.4 |
| 20260905221508 | 23 | 259 | 3.2 | 29.0 | 0.00 | 0.00 | 0.00 | 42 | 1017.6 |
| 20260905220012 | 22 | 281 | 8.0 | 14.5 | 0.00 | 0.00 | 0.00 | 45 | 1017.7 |
| 20260905214516 | 22 | 286 | 4.8 | 11.3 | 0.00 | 0.00 | 0.00 | 44 | 1017.9 |
| 20260905213004 | 22 | 267 | 4.8 | 11.3 | 0.00 | 0.00 | 0.00 | 45 | 1018.0 |
| 20260905211508 | 22 | 352 | 4.8 | 12.9 | 0.00 | 0.00 | 0.00 | 44 | 1018.2 |
| 20260905210010 | 21 | 242 | 6.4 | 12.9 | 0.00 | 0.00 | 0.00 | 46 | 1018.3 |
| 20260905204511 | 21 | 103 | 3.2 | 6.4 | 0.00 | 0.00 | 0.00 | 45 | 1018.4 |
| 20260905203019 | 21 | 316 | 3.2 | 12.9 | 0.00 | 0.00 | 0.00 | 49 | 1018.8 |
| 20260905201505 | 20 | 341 | 4.8 | 17.7 | 0.00 | 0.00 | 0.00 | 48 | 1018.9 |
| 20260905200009 | 20 | 304 | 3.2 | 11.3 | 0.00 | 0.00 | 0.00 | 48 | 1019.2 |
| 20260905194512 | 20 | 9 | 6.4 | 16.1 | 0.00 | 0.00 | 0.00 | 49 | 1019.2 |
| 20260905193017 | 19 | 334 | 4.8 | 11.3 | 0.00 | 0.00 | 0.00 | 52 | 1019.3 |
| 20260905191524 | 19 | 290 | 8.0 | 14.5 | 0.00 | 0.00 | 0.00 | 51 | 1019.3 |
| 20260905190006 | 18 | 310 | 8.0 | 12.9 | 0.00 | 0.00 | 0.00 | 52 | 1019.6 |
| 20260905184512 | 17 | 352 | 6.4 | 12.9 | 0.00 | 0.00 | 0.00 | 54 | 1019.6 |
| 20260905183027 | 17 | 287 | 6.4 | 16.1 | 0.00 | 0.00 | 0.00 | 55 | 1019.8 |
| 20260905181521 | 17 | 307 | 1.6 | 12.9 | 0.00 | 0.00 | 0.00 | 56 | 1020.0 |
| 20260905180027 | 16 | 317 | 4.8 | 11.3 | 0.00 | 0.00 | 0.00 | 58 | 1020.2 |
| 20260905174508 | 16 | 307 | 4.8 | 9.7 | 0.00 | 0.00 | 0.00 | 60 | 1020.4 |
| 20260905173027 | 16 | 221 | 6.4 | 12.9 | 0.00 | 0.00 | 0.00 | 60 | 1020.6 |
| 20260905171518 | 15 | 198 | 3.2 | 11.3 | 0.00 | 0.00 | 0.00 | 61 | 1020.6 |
| 20260905170026 | 15 | 230 | 4.8 | 11.3 | 0.00 | 0.00 | 0.00 | 62 | 1020.8 |
| 20260905164529 | 15 | 305 | 1.6 | 9.7 | 0.00 | 0.00 | 0.00 | 63 | 1020.8 |
| 20260905163010 | 14 | 159 | 6.4 | 11.3 | 0.00 | 0.00 | 0.00 | 63 | 1020.7 |
| 20260905161515 | 14 | 270 | 4.8 | 12.9 | 0.00 | 0.00 | 0.00 | 63 | 1020.7 |
| 20260905160027 | 13 | 233 | 4.8 | 9.7 | 0.00 | 0.00 | 0.00 | 64 | 1020.6 |
| 20260905154526 | 13 | 223 | 3.2 | 11.3 | 0.00 | 0.00 | 0.00 | 67 | 1020.6 |
| 20260905153030 | 12 | 198 | 3.2 | 8.0 | 0.00 | 0.00 | 0.00 | 70 | 1020.7 |
| 20260905151514 | 11 | 167 | 4.8 | 8.0 | 0.00 | 0.00 | 0.00 | 73 | 1020.6 |
| 20260905150022 | 11 | 196 | 1.6 | 6.4 | 0.00 | 0.00 | 0.00 | 74 | 1020.5 |
| 20260905144526 | 12 | 232 | 4.8 | 6.4 | 0.00 | 0.00 | 0.00 | 68 | 1020.4 |
| 20260905143034 | 11 | 100 | 1.6 | 3.2 | 0.00 | 0.00 | 0.00 | 72 | 1020.3 |
| 20260905141523 | 10 | 103 | 1.6 | 4.8 | 0.00 | 0.00 | 0.00 | 74 | 1020.3 |
| 20260905140019 | 11 | 132 | 1.6 | 6.4 | 0.00 | 0.00 | 0.00 | 73 | 1020.1 |
| 20260905134532 | 10 | 135 | 3.2 | 6.4 | 0.00 | 0.00 | 0.00 | 73 | 1020.0 |
| 20260905133005 | 10 | 175 | 4.8 | 16.1 | 0.00 | 0.00 | 0.00 | 74 | 1019.8 |
| 20260905131509 | 10 | 148 | 4.8 | 8.0 | 0.00 | 0.00 | 0.00 | 76 | 1019.5 |
| 20260905130008 | 10 | 139 | 4.8 | 8.0 | 0.00 | 0.00 | 0.00 | 75 | 1019.1 |
| 20260905124511 | 10 | 148 | 4.8 | 8.0 | 0.00 | 0.00 | 0.00 | 75 | 1019.1 |
| 20260905123006 | 10 | 140 | 4.8 | 11.3 | 0.00 | 0.00 | 0.00 | 75 | 1019.0 |
| 20260905121504 | 10 | 132 | 8.0 | 12.9 | 0.00 | 0.00 | 0.00 | 75 | 1018.7 |
| 20260905120008 | 10 | 141 | 9.7 | 14.5 | 0.00 | 0.00 | 0.00 | 75 | 1018.7 |
| 20260905114507 | 10 | 139 | 12.9 | 17.7 | 0.00 | 0.00 | 0.00 | 74 | 1018.4 |
| 20260905113003 | 10 | 149 | 8.0 | 17.7 | 0.00 | 0.00 | 0.00 | 73 | 1018.3 |
| 20260905111508 | 10 | 164 | 11.3 | 14.5 | 0.00 | 0.00 | 0.00 | 73 | 1018.3 |
| 20260905110011 | 10 | 161 | 8.0 | 14.5 | 0.00 | 0.00 | 0.00 | 74 | 1018.3 |
| 20260905104513 | 11 | 155 | 8.0 | 22.5 | 0.00 | 0.00 | 0.00 | 72 | 1018.1 |